Weather History for Stanton, MN

Change the Weather History Date:

Monday, October 8, 2012

  Actual Average (KLVN) Record (KLVN)
Temperature  
Mean Temperature 52 °F -  
Max Temperature 66 °F 61 °F 84 °F (2003)
Min Temperature 38 °F 40 °F 23 °F (1976)
Degree Days  
Heating Degree Days 13    
Growing Degree Days 2 (Base 50)    
Moisture  
Dew Point 30 °F    
Average Humidity 45    
Maximum Humidity 59    
Minimum Humidity 22    
Precipitation  
Precipitation 0.00 in - - ()
Sea Level Pressure  
Sea Level Pressure 29.74 in    
Wind  
Wind Speed 11 mph (SSW)    
Max Wind Speed 24 mph    
Max Gust Speed 31 mph    
Visibility 10 miles    
Events Rain    
Averages and records for this station are not official NWS values.
T = Trace of Precipitation, MM = Missing Value Source: NWS Daily Summary

Daily Weather History Graph

Daily Weather History Graph

Search for Another Location

Airport:

Trip Planner

Search our weather history database for the weather conditions in past years. The results will help you decide how hot, cold, wet, or windy it might be!

Date:

Astronomy

Oct. 08, 2012 Rise Set
Actual Time 7:19 AM CDT 6:39 PM CDT
Civil Twilight 6:49 AM CDT 7:08 PM CDT
Nautical Twilight 6:16 AM CDT 7:41 PM CDT
Astronomical Twilight 5:42 AM CDT 8:15 PM CDT
Moon No Moon Rise 2:43 PM CDT (10/8)
Length of Visible Light 12h 18m
Length of Day
11h 20m
Last Quarter, 46% of the Moon is Illuminated
Oct 8
Last Quarter
Oct 15
New
Oct 21
First Quarter
Oct 29
Full
Nov 6
Last Quarter

Hourly Weather History & Observations

Time (CDT) Temp. Windchill Dew Point Humidity Pressure Visibility Wind Dir Wind Speed Gust Speed Precip Events Conditions
12:12 AM 40.5 °F 34.6 °F 22.1 °F 48% 29.90 in 10.0 mi South 9.2 mph - N/A   Clear
12:32 AM 41.0 °F 34.7 °F 22.1 °F 47% 29.89 in 10.0 mi South 10.4 mph - N/A   Clear
12:52 AM 41.2 °F 35.0 °F 22.5 °F 47% 29.88 in 10.0 mi South 10.4 mph 16.1 mph N/A   Clear
1:12 AM 41.0 °F 34.7 °F 22.8 °F 48% 29.88 in 10.0 mi South 10.4 mph - N/A   Clear
1:32 AM 40.6 °F 34.3 °F 23.0 °F 49% 29.87 in 10.0 mi South 10.4 mph - N/A   Clear
1:52 AM 41.0 °F 35.2 °F 23.4 °F 50% 29.86 in 10.0 mi South 9.2 mph - N/A   Clear
2:12 AM 41.0 °F 36.4 °F 23.5 °F 50% 29.86 in 10.0 mi South 6.9 mph - N/A   Clear
2:32 AM 40.3 °F 34.4 °F 23.9 °F 52% 29.86 in 10.0 mi South 9.2 mph - N/A   Clear
2:52 AM 39.7 °F 34.9 °F 23.9 °F 53% 29.85 in 10.0 mi South 6.9 mph - N/A   Clear
3:12 AM 39.2 °F 33.6 °F 23.9 °F 54% 29.84 in 10.0 mi South 8.1 mph - N/A   Clear
3:32 AM 38.3 °F 33.2 °F 24.1 °F 57% 29.84 in 10.0 mi South 6.9 mph - N/A   Clear
3:52 AM 38.5 °F 32.7 °F 24.4 °F 57% 29.84 in 10.0 mi South 8.1 mph - N/A   Clear
4:12 AM 38.5 °F 33.4 °F 24.6 °F 58% 29.83 in 10.0 mi South 6.9 mph - N/A   Clear
4:32 AM 38.7 °F 33.6 °F 24.8 °F 58% 29.83 in 10.0 mi South 6.9 mph - N/A   Clear
4:52 AM 38.5 °F 32.7 °F 24.8 °F 58% 29.82 in 10.0 mi South 8.1 mph - N/A   Clear
5:12 AM 39.2 °F 33.6 °F 25.3 °F 58% 29.82 in 10.0 mi South 8.1 mph - N/A   Clear
5:32 AM 39.6 °F 34.0 °F 25.5 °F 57% 29.82 in 10.0 mi South 8.1 mph - N/A   Clear
5:52 AM 39.7 °F 34.3 °F 25.7 °F 57% 29.81 in 10.0 mi South 8.1 mph - N/A   Clear
6:12 AM 40.1 °F 34.7 °F 26.2 °F 58% 29.81 in 10.0 mi South 8.1 mph - N/A   Clear
6:32 AM 41.0 °F 35.2 °F 26.6 °F 57% 29.81 in 10.0 mi South 9.2 mph - N/A   Scattered Clouds
6:52 AM 40.6 °F 35.4 °F 27.1 °F 59% 29.80 in 10.0 mi South 8.1 mph - N/A   Scattered Clouds
7:12 AM 40.6 °F 35.4 °F 27.5 °F 59% 29.80 in 10.0 mi South 8.1 mph - N/A   Mostly Cloudy
7:31 AM 41.4 °F 36.2 °F 28.0 °F 59% 29.80 in 10.0 mi South 8.1 mph 16.1 mph N/A   Overcast
7:52 AM 42.1 °F 35.2 °F 28.4 °F 58% 29.79 in 10.0 mi South 12.7 mph 16.1 mph N/A   Overcast
8:12 AM 42.6 °F 37.2 °F 28.8 °F 58% 29.78 in 10.0 mi South 9.2 mph - N/A   Overcast
8:33 AM 43.7 °F 38.1 °F 29.3 °F 57% 29.78 in 10.0 mi South 10.4 mph - N/A   Overcast
8:52 AM 44.6 °F 38.8 °F 29.8 °F 56% 29.78 in 10.0 mi South 11.5 mph 17.3 mph N/A   Overcast
9:12 AM 45.0 °F 38.2 °F 30.0 °F 56% 29.77 in 10.0 mi South 15.0 mph - N/A   Overcast
9:32 AM 45.5 °F 39.6 °F 30.4 °F 56% 29.76 in 10.0 mi South 12.7 mph 19.6 mph N/A   Overcast
9:52 AM 46.6 °F - 30.9 °F 54% 29.78 in 10.0 mi SSW 6.9 mph 16.1 mph N/A   Overcast
10:12 AM 47.3 °F - 30.9 °F 53% 29.77 in 10.0 mi South 13.8 mph 19.6 mph N/A   Overcast
10:32 AM 48.2 °F - 31.1 °F 52% 29.75 in 10.0 mi South 13.8 mph 20.7 mph N/A   Overcast
10:52 AM 50.0 °F - 31.5 °F 49% 29.75 in 10.0 mi South 12.7 mph 18.4 mph N/A   Overcast
11:12 AM 52.3 °F - 31.6 °F 45% 29.75 in 10.0 mi South 11.5 mph 18.4 mph N/A   Mostly Cloudy
11:32 AM 52.7 °F - 31.8 °F 45% 29.73 in 10.0 mi South 13.8 mph 18.4 mph N/A   Mostly Cloudy
11:52 AM 54.1 °F - 32.0 °F 43% 29.73 in 10.0 mi South 9.2 mph 19.6 mph N/A   Mostly Cloudy
12:12 PM 55.8 °F - 32.0 °F 41% 29.72 in 10.0 mi South 11.5 mph 21.9 mph N/A   Overcast
12:32 PM 59.0 °F - 32.0 °F 36% 29.70 in 10.0 mi South 12.7 mph 24.2 mph N/A   Overcast
12:52 PM 59.7 °F - 31.6 °F 35% 29.69 in 10.0 mi South 16.1 mph 26.5 mph N/A   Overcast
1:12 PM 60.6 °F - 31.1 °F 33% 29.67 in 10.0 mi South 17.3 mph 24.2 mph N/A   Overcast
1:32 PM 60.8 °F - 30.9 °F 32% 29.65 in 10.0 mi South 19.6 mph 26.5 mph N/A   Overcast
1:52 PM 61.5 °F - 30.7 °F 31% 29.64 in 10.0 mi South 13.8 mph 25.3 mph N/A   Overcast
2:12 PM 61.7 °F - 30.7 °F 31% 29.64 in 10.0 mi SSW 15.0 mph 26.5 mph N/A   Overcast
2:32 PM 62.2 °F - 31.1 °F 31% 29.63 in 10.0 mi SSW 18.4 mph 28.8 mph N/A   Overcast
2:52 PM 63.1 °F - 30.9 °F 30% 29.63 in 10.0 mi SSW 19.6 mph 25.3 mph N/A   Overcast
3:12 PM 63.7 °F - 30.4 °F 29% 29.63 in 10.0 mi SSW 23.0 mph 29.9 mph N/A   Overcast
3:32 PM 65.1 °F - 29.7 °F 26% 29.62 in 10.0 mi SSW 24.2 mph 29.9 mph N/A   Overcast
3:52 PM 65.7 °F - 29.8 °F 26% 29.60 in 10.0 mi SSW 21.9 mph 28.8 mph N/A   Overcast
4:12 PM 65.5 °F - 28.9 °F 25% 29.60 in 10.0 mi SSW 17.3 mph 28.8 mph N/A   Mostly Cloudy
4:32 PM 66.0 °F - 27.7 °F 24% 29.60 in 10.0 mi SSW 23.0 mph 29.9 mph N/A   Overcast
4:52 PM 66.4 °F - 26.2 °F 22% 29.60 in 10.0 mi SW 20.7 mph 31.1 mph N/A   Overcast
5:12 PM 66.7 °F - 26.4 °F 22% 29.60 in 10.0 mi SSW 18.4 mph 23.0 mph N/A   Mostly Cloudy
5:32 PM 66.4 °F - 26.6 °F 22% 29.60 in 10.0 mi SSW 15.0 mph - N/A   Overcast
5:52 PM 66.4 °F - 27.0 °F 23% 29.60 in 10.0 mi SW 13.8 mph - N/A   Overcast
6:12 PM 66.2 °F - 31.5 °F 27% 29.62 in 10.0 mi WSW 13.8 mph 26.5 mph N/A Rain Light Rain
6:32 PM 65.3 °F - 32.4 °F 29% 29.62 in 10.0 mi WSW 9.2 mph 17.3 mph N/A   Overcast
6:52 PM 63.7 °F - 33.1 °F 32% 29.63 in 10.0 mi SW 9.2 mph - N/A   Overcast
7:32 PM 62.4 °F - 34.3 °F 35% 29.65 in 10.0 mi West 10.4 mph - N/A   Scattered Clouds
7:52 PM 61.3 °F - 37.4 °F 41% 29.66 in 10.0 mi West 6.9 mph - N/A   Scattered Clouds
8:12 PM 61.2 °F - 38.3 °F 43% 29.66 in 10.0 mi WSW 5.8 mph - N/A   Mostly Cloudy
8:32 PM 60.3 °F - 38.3 °F 44% 29.68 in 10.0 mi West 10.4 mph - N/A   Mostly Cloudy
8:52 PM 59.5 °F - 38.7 °F 46% 29.69 in 10.0 mi WNW 10.4 mph 23.0 mph N/A   Scattered Clouds
9:12 PM 57.4 °F - 38.7 °F 50% 29.70 in 10.0 mi WNW 8.1 mph - N/A   Clear
9:32 PM 57.2 °F - 38.7 °F 50% 29.71 in 10.0 mi West 6.9 mph - N/A   Clear
9:52 PM 56.7 °F - 38.7 °F 51% 29.72 in 10.0 mi West 6.9 mph - N/A   Mostly Cloudy
10:12 PM 56.3 °F - 38.7 °F 52% 29.73 in 10.0 mi WNW 6.9 mph - N/A   Overcast
10:52 PM 55.4 °F - 38.8 °F 54% 29.74 in 10.0 mi NW 8.1 mph - N/A   Overcast
11:32 PM 53.1 °F - 38.1 °F 57% 29.75 in 10.0 mi Calm Calm - N/A   Overcast
11:52 PM 52.9 °F - 36.5 °F 54% 29.75 in 10.0 mi West 3.5 mph - N/A   Overcast